Weather History for Worland, WY

Change the Weather History Date:

Saturday, May 4, 2013

  Actual Average Record
Temperature  
Mean Temperature 51 °F 52 °F  
Max Temperature 61 °F 66 °F 91 °F (1966)
Min Temperature 40 °F 37 °F 21 °F (1967)
Degree Days  
Heating Degree Days 14 14  
Month to date heating degree days 82 57  
Since 1 July heating degree days 7261 7524  
Cooling Degree Days 0 0  
Month to date cooling degree days 0 0  
Year to date cooling degree days 0 1  
Growing Degree Days 3 (Base 50)    
Moisture  
Dew Point 39 °F    
Average Humidity 68    
Maximum Humidity 96    
Minimum Humidity 39    
Precipitation  
Precipitation 0.15 in 0.04 in 0.97 in (1999)
Month to date precipitation 0.42 0.17  
Year to date precipitation 1.99 1.91  
Sea Level Pressure  
Sea Level Pressure 30.14 in    
Wind  
Wind Speed 9 mph (NNW)    
Max Wind Speed 21 mph    
Max Gust Speed 28 mph    
Visibility 10 miles    
Events Rain    
T = Trace of Precipitation, MM = Missing Value Source: NWS Daily Summary

Daily Weather History Graph

Daily Weather History Graph

Search for Another Location

Airport:

Trip Planner

Search our weather history database for the weather conditions in past years. The results will help you decide how hot, cold, wet, or windy it might be!

Date:

Astronomy

May. 04, 2013 Rise Set
Actual Time 5:58 AM MDT 8:18 PM MDT
Civil Twilight 5:26 AM MDT 8:51 PM MDT
Nautical Twilight 4:47 AM MDT 9:31 PM MDT
Astronomical Twilight 4:02 AM MDT 10:15 PM MDT
Moon 3:09 AM MDT (5/4) 3:10 PM MDT (5/4)
Length of Visible Light 15h 24m
Length of Day
14h 20m
Waning Crescent, 26% of the Moon is Illuminated
May 4
Waning Crescent
May 9
New
May 17
First Quarter
May 24
Full
May 31
Last Quarter

Hourly Weather History & Observations

Time (MDT) Temp. Windchill Dew Point Humidity Pressure Visibility Wind Dir Wind Speed Gust Speed Precip Events Conditions
12:53 AM 51.1 °F - 33.1 °F 50% 30.07 in 10.0 mi NW 11.5 mph - N/A   Overcast
1:53 AM 48.9 °F - 35.1 °F 59% 30.08 in 10.0 mi North 6.9 mph - N/A   Overcast
2:53 AM 48.9 °F - 37.0 °F 64% 30.08 in 10.0 mi NNW 6.9 mph - N/A   Overcast
3:53 AM 48.0 °F - 37.9 °F 68% 30.09 in 10.0 mi NNW 5.8 mph - N/A   Overcast
4:53 AM 46.0 °F 40.6 °F 39.0 °F 76% 30.10 in 10.0 mi NNW 11.5 mph - 0.00 in   Overcast
5:53 AM 46.0 °F 43.1 °F 39.0 °F 76% 30.11 in 10.0 mi North 5.8 mph - N/A   Overcast
6:53 AM 46.0 °F - 39.0 °F 76% 30.13 in 10.0 mi Calm Calm - N/A   Overcast
7:53 AM 46.9 °F - 39.9 °F 77% 30.15 in 10.0 mi NNW 10.4 mph - N/A   Overcast
8:53 AM 48.9 °F - 39.9 °F 71% 30.15 in 10.0 mi North 11.5 mph - N/A   Mostly Cloudy
9:53 AM 52.0 °F - 39.9 °F 63% 30.15 in 10.0 mi NNE 10.4 mph - N/A   Partly Cloudy
10:53 AM 55.0 °F - 39.0 °F 55% 30.15 in 10.0 mi North 9.2 mph - N/A   Mostly Cloudy
11:53 AM 55.0 °F - 37.0 °F 51% 30.15 in 10.0 mi NNW 9.2 mph - N/A   Overcast
12:53 PM 57.9 °F - 36.0 °F 44% 30.12 in 10.0 mi NNW 8.1 mph - N/A   Mostly Cloudy
1:53 PM 60.1 °F - 35.1 °F 39% 30.11 in 10.0 mi NW 9.2 mph - N/A   Scattered Clouds
2:51 PM 51.8 °F - 39.2 °F 62% 30.17 in 10.0 mi SE 13.8 mph 25.3 mph N/A   Overcast
2:53 PM 52.0 °F - 39.9 °F 63% 30.15 in 10.0 mi SE 12.7 mph - N/A   Overcast
3:53 PM 54.0 °F - 37.0 °F 53% 30.13 in 10.0 mi WSW 5.8 mph - 0.00 in   Overcast
4:53 PM 55.9 °F - 37.0 °F 49% 30.12 in 10.0 mi NNW 8.1 mph - N/A   Overcast
5:53 PM 53.1 °F - 39.9 °F 61% 30.15 in 10.0 mi NW 16.1 mph - N/A   Partly Cloudy
6:53 PM 50.0 °F - 39.0 °F 66% 30.16 in 10.0 mi NW 15.0 mph - N/A   Partly Cloudy
7:53 PM 50.0 °F - 39.9 °F 68% 30.19 in 10.0 mi SE 6.9 mph - 0.00 in Rain Light Rain
8:32 PM 46.4 °F 43.5 °F 42.8 °F 87% 30.21 in 2.0 mi ENE 5.8 mph - 0.10 in Rain Heavy Rain
8:53 PM 46.9 °F - 43.0 °F 86% 30.19 in 5.0 mi NW 16.1 mph - 0.15 in Rain Light Rain
9:53 PM 46.9 °F - 41.0 °F 80% 30.19 in 10.0 mi North 6.9 mph - 0.00 in   Overcast
10:53 PM 46.9 °F - 42.1 °F 83% 30.19 in 10.0 mi NNW 4.6 mph - N/A   Overcast
11:53 PM 43.0 °F 39.5 °F 41.0 °F 93% 30.21 in 10.0 mi SSE 5.8 mph - N/A   Clear